Погода в Санбери

Австралия     37°34′46″S   144°43′29″E
темп.,
°C
ветер,
м/с
пор.,
м/с
влажн.,
%
обл.,
%
осадки,
мм/ч
давл.,
гПа
погр.,
м
25 января, вт
вт2523:00+22зюз2253100 0.0 100831
02:00+21с2254100 0.0 100819
05:00+21ссз3450100 0.0 100769
08:00+23ссз253997 0.0 1009236
11:00+30с322657 0.0 10081508
14:00+34юв332152 0.0 10063381
17:00+32ююв75255 0.0 10061949
20:00+27ю57375 0.0 1007530
26 января, ср
ср2623:00+21зюз22565 0.0 100937
02:00+21ссз115410 0.0 100819
05:00+20с23555 0.0 100842
08:00+23с586125 0.1 1010362
11:00+29с664298 0.1 10101226
14:00+34ссв5528100 0.0 10082878
17:00+33с762578 0.0 10063049
20:00+29зсз3637100 0.1 1007240
27 января, чт
чт2723:00+25с2252100 0.6 100839
02:00+21св1183100 1.8 101040
05:00+21ссв61280100 2.8 1008334
08:00+22с917724 0.0 1009586
11:00+28с10134982 0.0 10091175
14:00+32с10113988 0.0 10082341
17:00+33ссв91035100 0.0 10042072
20:00+21с2589100 4.1 1009281
28 января, пт
пт2823:00+20ссв31089100 4.5 1008260
02:00+21с717830 0.0 1008496
05:00+21с715764 0.0 1007358
08:00+23с7137569 0.0 1009575
11:00+29с685215 0.0 10101341
14:00+29ссз475734 3.3 10091375
17:00+23ю7787100 9.9 1009761
20:00+18ююв4797100 3.2 1013441
29 января, сб
сб2923:00+17ююз479363 3.6 1014468
02:00+16ююз469380 0.1 1015473
05:00+16ю479164 0.1 1015515
08:00+16ю478764 0.1 1016557
11:00+19ю567292 0.1 1017842
14:00+23ю665524 0.0 10161124
17:00+22ю775826 0.0 10151127
20:00+18ю697743 0.0 1016694